Weather History for KCIC - October, 2013

Change the Weather History Date:

Friday, October 18, 2013

  Actual Average (KOVE) Record (KOVE)
Temperature  
Mean Temperature 64 °F -  
Max Temperature 80 °F 78 °F 94 °F (1961)
Min Temperature 48 °F 48 °F 32 °F (1984)
Degree Days  
Heating Degree Days 1    
Growing Degree Days 14 (Base 50)    
Moisture  
Dew Point 34 °F    
Average Humidity 40    
Maximum Humidity 54    
Minimum Humidity 17    
Precipitation  
Precipitation 0.00 in - - ()
Sea Level Pressure  
Sea Level Pressure 30.01 in    
Wind  
Wind Speed 4 mph (East)    
Max Wind Speed 12 mph    
Max Gust Speed -    
Visibility 10 miles    
Events      
Averages and records for this station are not official NWS values.
T = Trace of Precipitation, MM = Missing Value Source: NWS Daily Summary

Daily Weather History Graph

Daily Weather History Graph

Search for Another Location

Airport or City:

Trip Planner

Search our weather history database for the weather conditions in past years. The results will help you decide how hot, cold, wet, or windy it might be!

Date:

Astronomy

Oct. 18, 2013 Rise Set
Actual Time 7:21 AM PDT 6:23 PM PDT
Civil Twilight 6:53 AM PDT 6:50 PM PDT
Nautical Twilight 6:22 AM PDT 7:21 PM PDT
Astronomical Twilight 5:51 AM PDT 7:53 PM PDT
Moon 6:16 PM PDT (10/18) 7:02 AM PDT (10/18)
Length of Visible Light 11h 56m
Length of Day
11h 01m
Full, 100% of the Moon is Illuminated
Oct 18
Full
Oct 18
Full
Oct 26
Last Quarter
Nov 3
New
Nov 9
First Quarter

Hourly Weather History & Observations

Time (PDT) Temp. Dew Point Humidity Pressure Visibility Wind Dir Wind Speed Gust Speed Precip Events Conditions
12:15 AM 53.6 °F 32.0 °F 44% 29.98 in 10.0 mi NNW 5.8 mph - N/A   Clear
12:35 AM 57.2 °F 32.0 °F 38% 29.99 in 10.0 mi NNW 8.1 mph - N/A   Clear
12:55 AM 59.0 °F 32.0 °F 36% 29.99 in 10.0 mi North 4.6 mph - N/A   Clear
1:15 AM 60.8 °F 32.0 °F 34% 29.98 in 10.0 mi NNE 5.8 mph - N/A   Clear
1:35 AM 59.0 °F 32.0 °F 36% 29.98 in 10.0 mi NE 5.8 mph - N/A   Clear
1:55 AM 59.0 °F 32.0 °F 36% 29.98 in 10.0 mi NE 6.9 mph - N/A   Clear
2:15 AM 53.6 °F 32.0 °F 44% 29.98 in 10.0 mi Calm Calm - N/A   Clear
2:35 AM 50.0 °F 32.0 °F 50% 29.99 in 10.0 mi Calm Calm - N/A   Clear
2:55 AM 50.0 °F 32.0 °F 50% 29.99 in 10.0 mi Calm Calm - N/A   Clear
3:15 AM 53.6 °F 32.0 °F 44% 29.99 in 10.0 mi Calm Calm - N/A   Clear
3:35 AM 50.0 °F 32.0 °F 50% 29.98 in 10.0 mi Calm Calm - N/A   Clear
3:55 AM 50.0 °F 32.0 °F 50% 29.98 in 10.0 mi Calm Calm - N/A   Clear
4:15 AM 51.8 °F 32.0 °F 47% 29.98 in 10.0 mi Calm Calm - N/A   Clear
4:35 AM 50.0 °F 32.0 °F 50% 29.98 in 10.0 mi Calm Calm - N/A   Clear
4:55 AM 48.2 °F 32.0 °F 54% 29.98 in 10.0 mi Calm Calm - N/A   Clear
5:15 AM 50.0 °F 32.0 °F 50% 29.99 in 10.0 mi Calm Calm - N/A   Clear
5:35 AM 50.0 °F 32.0 °F 50% 29.99 in 10.0 mi Calm Calm - N/A   Clear
5:55 AM 50.0 °F 32.0 °F 50% 29.99 in 10.0 mi Calm Calm - N/A   Clear
6:15 AM 48.2 °F 32.0 °F 54% 29.99 in 10.0 mi Calm Calm - N/A   Clear
6:35 AM 48.2 °F 32.0 °F 54% 29.99 in 10.0 mi Calm Calm - N/A   Clear
6:50 AM 48.2 °F 32.0 °F 54% 30.00 in 10.0 mi Calm Calm - N/A   Clear
6:55 AM 48.2 °F 32.0 °F 54% 30.00 in 10.0 mi Calm Calm - N/A   Clear
7:15 AM 50.0 °F 32.0 °F 50% 30.01 in 10.0 mi Calm Calm - N/A   Clear
7:35 AM 50.0 °F 33.8 °F 54% 30.01 in 10.0 mi Calm Calm - N/A   Clear
7:58 AM 53.6 °F 35.6 °F 51% 30.03 in 80.0 mi SE 5.8 mph - N/A   Clear
8:58 AM 57.2 °F 37.4 °F 48% 30.05 in 80.0 mi SE 5.8 mph - N/A   Clear
9:58 AM 62.6 °F 35.6 °F 37% 30.06 in 80.0 mi SE 11.5 mph - N/A   Clear
10:58 AM 68.0 °F 37.4 °F 33% 30.06 in 80.0 mi SE 9.2 mph - N/A   Clear
11:56 AM 71.6 °F 35.6 °F 27% 30.06 in 80.0 mi SE 10.4 mph - N/A   Clear
12:47 PM 73.4 °F 35.6 °F 25% 30.05 in 80.0 mi SE 8.1 mph - N/A   Clear
2:58 PM 77.0 °F 33.8 °F 21% 30.00 in 40.0 mi SE 9.2 mph - N/A   Clear
3:59 PM 80.6 °F 32.0 °F 17% 29.99 in 25.0 mi SE 6.9 mph - N/A   Clear
4:52 PM 78.8 °F 33.8 °F 20% 29.99 in 25.0 mi South 5.8 mph - N/A   Clear
5:47 PM 78.8 °F 33.8 °F 20% 29.99 in 25.0 mi SSE 8.1 mph - N/A   Clear
6:55 PM 73.4 °F 37.4 °F 27% 30.00 in 10.0 mi ESE 5.8 mph - N/A   Clear
7:55 PM 66.2 °F 35.6 °F 32% 30.01 in 10.0 mi Calm Calm - N/A   Clear
8:15 PM 66.2 °F 35.6 °F 32% 30.01 in 10.0 mi Calm Calm - N/A   Clear
8:35 PM 66.2 °F 35.6 °F 32% 30.01 in 10.0 mi Calm Calm - N/A   Clear
8:55 PM 62.6 °F 35.6 °F 37% 30.02 in 10.0 mi Calm Calm - N/A   Clear
9:15 PM 64.4 °F 35.6 °F 34% 30.02 in 10.0 mi Calm Calm - N/A   Clear
9:35 PM 64.4 °F 35.6 °F 34% 30.03 in 10.0 mi Calm Calm - N/A   Clear
9:55 PM 62.6 °F 35.6 °F 37% 30.03 in 10.0 mi ENE 4.6 mph - N/A   Clear
10:15 PM 62.6 °F 35.6 °F 37% 30.03 in 10.0 mi ENE 4.6 mph - N/A   Clear
10:35 PM 62.6 °F 35.6 °F 37% 30.03 in 10.0 mi NE 4.6 mph - N/A   Clear
10:55 PM 62.6 °F 35.6 °F 37% 30.03 in 10.0 mi ENE 6.9 mph - N/A   Clear
11:15 PM 64.4 °F 35.6 °F 34% 30.03 in 10.0 mi ENE 6.9 mph - N/A   Clear
11:35 PM 62.6 °F 35.6 °F 37% 30.03 in 10.0 mi NE 5.8 mph - N/A   Clear
11:55 PM 62.6 °F 35.6 °F 37% 30.04 in 10.0 mi NE 6.9 mph - N/A   Clear